Wetterdaten: Montag, 29.08.2011
Datum Zeit Temp. A. Temp. A. min Temp. A. max Feuchte A. Bod.Feucht 4 Luftdruck Regen Wind Richtung Richtung Sonnenschein ET Solar Taupunkt Windchill Windben Empfang
29.08.2011 00:02 11,2 C 0,0 C 0,0 C 84 % 0 cb 1017,5 hPa 0,0 l/m 0,0 km/h (0 Bft) W-NW 290 0 min 0,000 mm 0 W/m 8,6 C 11,2 C 0,0 km/h (0 Bft) 0,00 %
29.08.2011 00:07 11,1 C 0,0 C 0,0 C 85 % 0 cb 1017,5 hPa 0,0 l/m 0,0 km/h (0 Bft) W-SW 245 0 min 0,000 mm 0 W/m 8,7 C 11,1 C 0,0 km/h (0 Bft) 0,00 %
29.08.2011 00:12 11,1 C 0,0 C 0,0 C 85 % 0 cb 1017,5 hPa 0,0 l/m 0,0 km/h (0 Bft) S-SW 200 0 min 0,000 mm 0 W/m 8,7 C 11,1 C 0,0 km/h (0 Bft) 0,00 %
29.08.2011 00:17 11,0 C 0,0 C 0,0 C 85 % 0 cb 1017,5 hPa 0,0 l/m 0,0 km/h (0 Bft) N-NW 335 0 min 0,000 mm 0 W/m 8,6 C 11,0 C 0,0 km/h (0 Bft) 0,00 %
29.08.2011 00:22 10,9 C 0,0 C 0,0 C 85 % 0 cb 1016,5 hPa 0,0 l/m 0,0 km/h (0 Bft) N 0 0 min 0,000 mm 0 W/m 8,5 C 10,9 C 0,0 km/h (0 Bft) 0,00 %
29.08.2011 00:27 10,6 C 0,0 C 0,0 C 85 % 0 cb 1016,5 hPa 0,0 l/m 0,0 km/h (0 Bft) N-NW 330 0 min 0,000 mm 0 W/m 8,2 C 10,6 C 0,0 km/h (0 Bft) 0,00 %
29.08.2011 00:32 10,3 C 0,0 C 0,0 C 85 % 0 cb 1016,5 hPa 0,0 l/m 0,0 km/h (0 Bft) SW 235 0 min 0,000 mm 0 W/m 7,9 C 10,3 C 0,0 km/h (0 Bft) 0,00 %
29.08.2011 00:37 10,2 C 0,0 C 0,0 C 85 % 0 cb 1016,5 hPa 0,0 l/m 0,0 km/h (0 Bft) N-NO 15 0 min 0,000 mm 0 W/m 7,8 C 10,2 C 0,0 km/h (0 Bft) 0,00 %
29.08.2011 00:42 10,1 C 0,0 C 0,0 C 85 % 0 cb 1016,5 hPa 0,0 l/m 0,0 km/h (0 Bft) O 95 0 min 0,000 mm 0 W/m 7,7 C 10,1 C 0,0 km/h (0 Bft) 0,00 %
29.08.2011 00:47 10,0 C 0,0 C 0,0 C 85 % 0 cb 1016,5 hPa 0,0 l/m 0,0 km/h (0 Bft) S-SO 155 0 min 0,000 mm 0 W/m 7,6 C 10,0 C 0,0 km/h (0 Bft) 0,00 %
29.08.2011 00:52 9,8 C 0,0 C 0,0 C 86 % 0 cb 1016,5 hPa 0,0 l/m 0,0 km/h (0 Bft) NW 315 0 min 0,000 mm 0 W/m 7,6 C 9,8 C 0,0 km/h (0 Bft) 0,00 %
29.08.2011 00:57 9,7 C 0,0 C 0,0 C 86 % 0 cb 1016,5 hPa 0,0 l/m 0,0 km/h (0 Bft) NW 320 0 min 0,000 mm 0 W/m 7,5 C 9,7 C 0,0 km/h (0 Bft) 0,00 %
29.08.2011 01:02 9,7 C 0,0 C 0,0 C 86 % 0 cb 1016,5 hPa 0,0 l/m 0,0 km/h (0 Bft) O-SO 115 0 min 0,000 mm 0 W/m 7,5 C 9,7 C 0,0 km/h (0 Bft) 0,00 %
29.08.2011 01:07 9,8 C 0,0 C 0,0 C 86 % 0 cb 1016,5 hPa 0,0 l/m 0,0 km/h (0 Bft) SO 125 0 min 0,000 mm 0 W/m 7,6 C 9,8 C 0,0 km/h (0 Bft) 0,00 %
29.08.2011 01:12 9,6 C 0,0 C 0,0 C 86 % 0 cb 1016,5 hPa 0,0 l/m 0,0 km/h (0 Bft) W-NW 290 0 min 0,000 mm 0 W/m 7,4 C 9,6 C 0,0 km/h (0 Bft) 0,00 %
29.08.2011 01:17 9,3 C 0,0 C 0,0 C 86 % 0 cb 1016,5 hPa 0,0 l/m 0,0 km/h (0 Bft) W-NW 285 0 min 0,000 mm 0 W/m 7,1 C 9,3 C 0,0 km/h (0 Bft) 0,00 %
29.08.2011 01:22 9,1 C 0,0 C 0,0 C 86 % 0 cb 1016,5 hPa 0,0 l/m 0,0 km/h (0 Bft) NW 320 0 min 0,000 mm 0 W/m 6,9 C 9,1 C 0,0 km/h (0 Bft) 0,00 %
29.08.2011 01:27 9,1 C 0,0 C 0,0 C 86 % 0 cb 1016,5 hPa 0,0 l/m 0,0 km/h (0 Bft) N-NW 335 0 min 0,000 mm 0 W/m 6,9 C 9,1 C 0,0 km/h (0 Bft) 0,00 %
29.08.2011 01:32 9,2 C 0,0 C 0,0 C 87 % 0 cb 1016,5 hPa 0,0 l/m 0,0 km/h (0 Bft) N-NW 345 0 min 0,000 mm 0 W/m 7,2 C 9,2 C 0,0 km/h (0 Bft) 0,00 %
29.08.2011 01:37 9,0 C 0,0 C 0,0 C 87 % 0 cb 1016,5 hPa 0,0 l/m 0,0 km/h (0 Bft) N-NW 345 0 min 0,000 mm 0 W/m 7,0 C 9,0 C 0,0 km/h (0 Bft) 0,00 %
29.08.2011 01:42 8,9 C 0,0 C 0,0 C 87 % 0 cb 1016,5 hPa 0,0 l/m 0,0 km/h (0 Bft) N-NW 345 0 min 0,000 mm 0 W/m 6,9 C 8,9 C 0,0 km/h (0 Bft) 0,00 %
29.08.2011 01:47 8,7 C 0,0 C 0,0 C 87 % 0 cb 1016,5 hPa 0,0 l/m 0,0 km/h (0 Bft) N-NW 345 0 min 0,000 mm 0 W/m 6,7 C 8,7 C 0,0 km/h (0 Bft) 0,00 %
29.08.2011 01:52 8,6 C 0,0 C 0,0 C 87 % 0 cb 1016,5 hPa 0,0 l/m 0,0 km/h (0 Bft) NO 50 0 min 0,000 mm 0 W/m 6,6 C 8,6 C 0,0 km/h (0 Bft) 0,00 %
29.08.2011 01:57 8,6 C 0,0 C 0,0 C 87 % 0 cb 1016,5 hPa 0,0 l/m 0,0 km/h (0 Bft) N 355 0 min 0,000 mm 0 W/m 6,6 C 8,6 C 0,0 km/h (0 Bft) 0,00 %
29.08.2011 02:02 8,6 C 0,0 C 0,0 C 87 % 0 cb 1016,5 hPa 0,0 l/m 0,0 km/h (0 Bft) N-NO 30 0 min 0,000 mm 0 W/m 6,6 C 8,6 C 0,0 km/h (0 Bft) 0,00 %
29.08.2011 02:07 8,7 C 0,0 C 0,0 C 87 % 0 cb 1016,5 hPa 0,0 l/m 0,0 km/h (0 Bft) N-NW 330 0 min 0,000 mm 0 W/m 6,7 C 8,7 C 0,0 km/h (0 Bft) 0,00 %
29.08.2011 02:12 8,7 C 0,0 C 0,0 C 87 % 0 cb 1016,5 hPa 0,0 l/m 0,0 km/h (0 Bft) N-NW 330 0 min 0,000 mm 0 W/m 6,7 C 8,7 C 0,0 km/h (0 Bft) 0,00 %
29.08.2011 02:17 8,5 C 0,0 C 0,0 C 87 % 0 cb 1016,5 hPa 0,0 l/m 0,0 km/h (0 Bft) N-NW 335 0 min 0,000 mm 0 W/m 6,5 C 8,5 C 0,0 km/h (0 Bft) 0,00 %
29.08.2011 02:22 8,4 C 0,0 C 0,0 C 87 % 0 cb 1016,5 hPa 0,0 l/m 0,0 km/h (0 Bft) N-NW 335 0 min 0,000 mm 0 W/m 6,4 C 8,4 C 0,0 km/h (0 Bft) 0,00 %
29.08.2011 02:27 8,3 C 0,0 C 0,0 C 87 % 0 cb 1016,5 hPa 0,0 l/m 0,0 km/h (0 Bft) N 10 0 min 0,000 mm 0 W/m 6,3 C 8,3 C 0,0 km/h (0 Bft) 0,00 %
29.08.2011 02:32 8,4 C 0,0 C 0,0 C 87 % 0 cb 1016,5 hPa 0,0 l/m 0,0 km/h (0 Bft) NW 320 0 min 0,000 mm 0 W/m 6,4 C 8,4 C 0,0 km/h (0 Bft) 0,00 %
29.08.2011 02:36 8,5 C 0,0 C 0,0 C 87 % 0 cb 1016,5 hPa 0,0 l/m 0,0 km/h (0 Bft) N-NW 335 0 min 0,000 mm 0 W/m 6,5 C 8,5 C 0,0 km/h (0 Bft) 0,00 %
29.08.2011 02:41 8,4 C 0,0 C 0,0 C 87 % 0 cb 1016,5 hPa 0,0 l/m 0,0 km/h (0 Bft) N-NW 340 0 min 0,000 mm 0 W/m 6,4 C 8,4 C 0,0 km/h (0 Bft) 0,00 %
29.08.2011 02:46 8,3 C 0,0 C 0,0 C 87 % 0 cb 1016,5 hPa 0,0 l/m 0,0 km/h (0 Bft) NO 50 0 min 0,000 mm 0 W/m 6,3 C 8,3 C 0,0 km/h (0 Bft) 0,00 %
29.08.2011 02:51 8,2 C 0,0 C 0,0 C 87 % 0 cb 1016,5 hPa 0,0 l/m 0,0 km/h (0 Bft) NO 50 0 min 0,000 mm 0 W/m 6,2 C 8,2 C 0,0 km/h (0 Bft) 0,00 %
29.08.2011 02:56 8,3 C 0,0 C 0,0 C 88 % 0 cb 1016,5 hPa 0,0 l/m 0,0 km/h (0 Bft) O-NO 60 0 min 0,000 mm 0 W/m 6,4 C 8,3 C 0,0 km/h (0 Bft) 0,00 %
29.08.2011 03:01 8,1 C 0,0 C 0,0 C 88 % 0 cb 1016,5 hPa 0,0 l/m 0,0 km/h (0 Bft) N-NO 15 0 min 0,000 mm 0 W/m 6,2 C 8,1 C 0,0 km/h (0 Bft) 0,00 %
29.08.2011 03:06 8,0 C 0,0 C 0,0 C 88 % 0 cb 1016,5 hPa 0,0 l/m 0,0 km/h (0 Bft) N-NO 15 0 min 0,000 mm 0 W/m 6,1 C 8,0 C 0,0 km/h (0 Bft) 0,00 %
29.08.2011 03:11 7,9 C 0,0 C 0,0 C 88 % 0 cb 1016,5 hPa 0,0 l/m 0,0 km/h (0 Bft) N 0 0 min 0,000 mm 0 W/m 6,0 C 7,9 C 0,0 km/h (0 Bft) 0,00 %
29.08.2011 03:16 7,7 C 0,0 C 0,0 C 88 % 0 cb 1016,5 hPa 0,0 l/m 0,0 km/h (0 Bft) N 355 0 min 0,000 mm 0 W/m 5,8 C 7,7 C 0,0 km/h (0 Bft) 0,00 %
29.08.2011 03:21 7,6 C 0,0 C 0,0 C 88 % 0 cb 1016,5 hPa 0,0 l/m 0,0 km/h (0 Bft) N 5 0 min 0,000 mm 0 W/m 5,7 C 7,6 C 0,0 km/h (0 Bft) 0,00 %
29.08.2011 03:26 7,5 C 0,0 C 0,0 C 88 % 0 cb 1016,5 hPa 0,0 l/m 0,0 km/h (0 Bft) N 5 0 min 0,000 mm 0 W/m 5,6 C 7,5 C 0,0 km/h (0 Bft) 0,00 %
29.08.2011 03:31 7,5 C 0,0 C 0,0 C 88 % 0 cb 1016,5 hPa 0,0 l/m 0,0 km/h (0 Bft) N 350 0 min 0,000 mm 0 W/m 5,6 C 7,5 C 0,0 km/h (0 Bft) 0,00 %
29.08.2011 03:36 7,5 C 0,0 C 0,0 C 88 % 0 cb 1016,5 hPa 0,0 l/m 0,0 km/h (0 Bft) N 5 0 min 0,000 mm 0 W/m 5,6 C 7,5 C 0,0 km/h (0 Bft) 0,00 %
29.08.2011 03:41 7,8 C 0,0 C 0,0 C 88 % 0 cb 1016,5 hPa 0,0 l/m 0,0 km/h (0 Bft) O-NO 70 0 min 0,000 mm 0 W/m 5,9 C 7,8 C 0,0 km/h (0 Bft) 0,00 %
29.08.2011 03:46 7,7 C 0,0 C 0,0 C 88 % 0 cb 1016,5 hPa 0,0 l/m 0,0 km/h (0 Bft) NO 55 0 min 0,000 mm 0 W/m 5,8 C 7,7 C 0,0 km/h (0 Bft) 0,00 %
29.08.2011 03:51 7,7 C 0,0 C 0,0 C 88 % 0 cb 1015,5 hPa 0,0 l/m 0,0 km/h (0 Bft) N-NO 20 0 min 0,000 mm 0 W/m 5,8 C 7,7 C 0,0 km/h (0 Bft) 0,00 %
29.08.2011 03:56 8,0 C 0,0 C 0,0 C 88 % 0 cb 1015,5 hPa 0,0 l/m 0,0 km/h (0 Bft) O-NO 70 0 min 0,000 mm 0 W/m 6,1 C 8,0 C 0,0 km/h (0 Bft) 0,00 %
29.08.2011 04:01 8,1 C 0,0 C 0,0 C 88 % 0 cb 1015,5 hPa 0,0 l/m 0,0 km/h (0 Bft) O-NO 65 0 min 0,000 mm 0 W/m 6,2 C 8,1 C 0,0 km/h (0 Bft) 0,00 %
29.08.2011 04:06 8,0 C 0,0 C 0,0 C 88 % 0 cb 1015,5 hPa 0,0 l/m 0,0 km/h (0 Bft) N-NW 335 0 min 0,000 mm 0 W/m 6,1 C 8,0 C 0,0 km/h (0 Bft) 0,00 %
29.08.2011 04:11 7,7 C 0,0 C 0,0 C 88 % 0 cb 1015,5 hPa 0,0 l/m 0,0 km/h (0 Bft) N 350 0 min 0,000 mm 0 W/m 5,8 C 7,7 C 0,0 km/h (0 Bft) 0,00 %
29.08.2011 04:16 7,5 C 0,0 C 0,0 C 88 % 0 cb 1015,5 hPa 0,0 l/m 0,0 km/h (0 Bft) N 350 0 min 0,000 mm 0 W/m 5,6 C 7,5 C 0,0 km/h (0 Bft) 0,00 %
29.08.2011 04:21 7,4 C 0,0 C 0,0 C 88 % 0 cb 1016,5 hPa 0,0 l/m 0,0 km/h (0 Bft) N 350 0 min 0,000 mm 0 W/m 5,5 C 7,4 C 0,0 km/h (0 Bft) 0,00 %
29.08.2011 04:26 7,4 C 0,0 C 0,0 C 88 % 0 cb 1016,5 hPa 0,0 l/m 0,0 km/h (0 Bft) NO 50 0 min 0,000 mm 0 W/m 5,5 C 7,4 C 0,0 km/h (0 Bft) 0,00 %
29.08.2011 04:31 7,2 C 0,0 C 0,0 C 88 % 0 cb 1016,5 hPa 0,0 l/m 0,0 km/h (0 Bft) N-NW 345 0 min 0,000 mm 0 W/m 5,3 C 7,2 C 0,0 km/h (0 Bft) 0,00 %
29.08.2011 04:36 7,1 C 0,0 C 0,0 C 88 % 0 cb 1016,5 hPa 0,0 l/m 0,0 km/h (0 Bft) N-NW 345 0 min 0,000 mm 0 W/m 5,2 C 7,1 C 0,0 km/h (0 Bft) 0,00 %
29.08.2011 04:41 7,2 C 0,0 C 0,0 C 88 % 0 cb 1016,5 hPa 0,0 l/m 0,0 km/h (0 Bft) N 350 0 min 0,000 mm 0 W/m 5,3 C 7,2 C 0,0 km/h (0 Bft) 0,00 %
29.08.2011 04:46 7,2 C 0,0 C 0,0 C 88 % 0 cb 1016,5 hPa 0,0 l/m 0,0 km/h (0 Bft) N 350 0 min 0,000 mm 0 W/m 5,3 C 7,2 C 0,0 km/h (0 Bft) 0,00 %
29.08.2011 04:51 7,3 C 0,0 C 0,0 C 88 % 0 cb 1015,5 hPa 0,0 l/m 0,0 km/h (0 Bft) N-NW 345 0 min 0,000 mm 0 W/m 5,4 C 7,3 C 0,0 km/h (0 Bft) 0,00 %
29.08.2011 04:56 7,1 C 0,0 C 0,0 C 88 % 0 cb 1015,5 hPa 0,0 l/m 0,0 km/h (0 Bft) N 0 0 min 0,000 mm 0 W/m 5,2 C 7,1 C 0,0 km/h (0 Bft) 0,00 %
29.08.2011 05:01 7,1 C 0,0 C 0,0 C 88 % 0 cb 1015,5 hPa 0,0 l/m 0,0 km/h (0 Bft) N 10 0 min 0,000 mm 0 W/m 5,2 C 7,1 C 0,0 km/h (0 Bft) 0,00 %
29.08.2011 05:06 7,1 C 0,0 C 0,0 C 88 % 0 cb 1016,5 hPa 0,0 l/m 0,0 km/h (0 Bft) N-NO 20 0 min 0,000 mm 0 W/m 5,2 C 7,1 C 0,0 km/h (0 Bft) 0,00 %
29.08.2011 05:11 7,1 C 0,0 C 0,0 C 88 % 0 cb 1016,5 hPa 0,0 l/m 0,0 km/h (0 Bft) N 5 0 min 0,000 mm 0 W/m 5,2 C 7,1 C 0,0 km/h (0 Bft) 0,00 %
29.08.2011 05:16 7,1 C 0,0 C 0,0 C 88 % 0 cb 1016,5 hPa 0,0 l/m 0,0 km/h (0 Bft) N 355 0 min 0,000 mm 0 W/m 5,2 C 7,1 C 0,0 km/h (0 Bft) 0,00 %
29.08.2011 05:21 7,0 C 0,0 C 0,0 C 89 % 0 cb 1015,5 hPa 0,0 l/m 0,0 km/h (0 Bft) N 5 0 min 0,000 mm 0 W/m 5,3 C 7,0 C 0,0 km/h (0 Bft) 0,00 %
29.08.2011 05:26 6,8 C 0,0 C 0,0 C 89 % 0 cb 1015,5 hPa 0,0 l/m 0,0 km/h (0 Bft) N 0 0 min 0,000 mm 0 W/m 5,1 C 6,8 C 0,0 km/h (0 Bft) 0,00 %
29.08.2011 05:31 6,7 C 0,0 C 0,0 C 89 % 0 cb 1015,5 hPa 0,0 l/m 0,0 km/h (0 Bft) N 0 0 min 0,000 mm 0 W/m 5,0 C 6,7 C 0,0 km/h (0 Bft) 0,00 %
29.08.2011 05:36 6,9 C 0,0 C 0,0 C 89 % 0 cb 1015,5 hPa 0,0 l/m 0,0 km/h (0 Bft) O-NO 70 0 min 0,000 mm 0 W/m 5,2 C 6,9 C 0,0 km/h (0 Bft) 0,00 %
29.08.2011 05:41 6,9 C 0,0 C 0,0 C 89 % 0 cb 1015,5 hPa 0,0 l/m 0,0 km/h (0 Bft) N 355 0 min 0,000 mm 0 W/m 5,2 C 6,9 C 0,0 km/h (0 Bft) 0,00 %
29.08.2011 05:46 6,8 C 0,0 C 0,0 C 89 % 0 cb 1015,5 hPa 0,0 l/m 0,0 km/h (0 Bft) W 275 0 min 0,000 mm 0 W/m 5,1 C 6,8 C 0,0 km/h (0 Bft) 0,00 %
29.08.2011 05:51 6,7 C 0,0 C 0,0 C 89 % 0 cb 1016,5 hPa 0,0 l/m 0,0 km/h (0 Bft) NW 305 0 min 0,000 mm 0 W/m 5,0 C 6,7 C 0,0 km/h (0 Bft) 0,00 %
29.08.2011 05:56 6,7 C 0,0 C 0,0 C 89 % 0 cb 1016,5 hPa 0,0 l/m 0,0 km/h (0 Bft) NO 50 0 min 0,000 mm 0 W/m 5,0 C 6,7 C 0,0 km/h (0 Bft) 0,00 %
29.08.2011 06:02 6,8 C 0,0 C 0,0 C 89 % 0 cb 1016,5 hPa 0,0 l/m 0,0 km/h (0 Bft) N-NW 340 0 min 0,000 mm 0 W/m 5,1 C 6,8 C 0,0 km/h (0 Bft) 0,00 %
29.08.2011 06:07 6,8 C 0,0 C 0,0 C 89 % 0 cb 1015,5 hPa 0,0 l/m 0,0 km/h (0 Bft) N-NW 345 0 min 0,000 mm 0 W/m 5,1 C 6,8 C 0,0 km/h (0 Bft) 0,00 %
29.08.2011 06:12 6,8 C 0,0 C 0,0 C 89 % 0 cb 1015,5 hPa 0,0 l/m 0,0 km/h (0 Bft) NO 55 0 min 0,000 mm 0 W/m 5,1 C 6,8 C 0,0 km/h (0 Bft) 0,00 %
29.08.2011 06:17 6,7 C 0,0 C 0,0 C 89 % 0 cb 1015,5 hPa 0,0 l/m 0,0 km/h (0 Bft) N-NO 20 0 min 0,000 mm 0 W/m 5,0 C 6,7 C 0,0 km/h (0 Bft) 0,00 %
29.08.2011 06:22 6,8 C 0,0 C 0,0 C 89 % 0 cb 1015,5 hPa 0,0 l/m 0,0 km/h (0 Bft) O 90 0 min 0,000 mm 0 W/m 5,1 C 6,8 C 0,0 km/h (0 Bft) 0,00 %
29.08.2011 06:27 6,7 C 0,0 C 0,0 C 89 % 0 cb 1015,5 hPa 0,0 l/m 0,0 km/h (0 Bft) W-NW 300 0 min 0,000 mm 0 W/m 5,0 C 6,7 C 0,0 km/h (0 Bft) 0,00 %
29.08.2011 06:32 6,7 C 0,0 C 0,0 C 89 % 0 cb 1015,5 hPa 0,0 l/m 0,0 km/h (0 Bft) NW 320 0 min 0,000 mm 0 W/m 5,0 C 6,7 C 0,0 km/h (0 Bft) 0,00 %
29.08.2011 06:37 6,7 C 0,0 C 0,0 C 89 % 0 cb 1015,5 hPa 0,0 l/m 0,0 km/h (0 Bft) N-NW 330 0 min 0,000 mm 0 W/m 5,0 C 6,7 C 0,0 km/h (0 Bft) 0,00 %
29.08.2011 06:42 6,6 C 0,0 C 0,0 C 89 % 0 cb 1015,5 hPa 0,0 l/m 0,0 km/h (0 Bft) NW 325 0 min 0,000 mm 0 W/m 4,9 C 6,6 C 0,0 km/h (0 Bft) 0,00 %
29.08.2011 06:47 6,7 C 0,0 C 0,0 C 89 % 0 cb 1015,5 hPa 0,0 l/m 0,0 km/h (0 Bft) NW 320 0 min 0,000 mm 0 W/m 5,0 C 6,7 C 0,0 km/h (0 Bft) 0,00 %
29.08.2011 06:52 6,7 C 0,0 C 0,0 C 89 % 0 cb 1015,5 hPa 0,0 l/m 0,0 km/h (0 Bft) N-NW 330 0 min 0,000 mm 0 W/m 5,0 C 6,7 C 0,0 km/h (0 Bft) 0,00 %
29.08.2011 06:57 7,1 C 0,0 C 0,0 C 89 % 0 cb 1015,5 hPa 0,0 l/m 0,0 km/h (0 Bft) S-SO 155 0 min 0,000 mm 0 W/m 5,4 C 7,1 C 0,0 km/h (0 Bft) 0,00 %
29.08.2011 07:02 7,3 C 0,0 C 0,0 C 89 % 0 cb 1015,5 hPa 0,0 l/m 0,0 km/h (0 Bft) NW 310 0 min 0,000 mm 0 W/m 5,6 C 7,3 C 0,0 km/h (0 Bft) 0,00 %
29.08.2011 07:07 7,5 C 0,0 C 0,0 C 89 % 0 cb 1015,5 hPa 0,0 l/m 0,0 km/h (0 Bft) NW 325 0 min 0,000 mm 0 W/m 5,8 C 7,5 C 0,0 km/h (0 Bft) 0,00 %
29.08.2011 07:12 7,6 C 0,0 C 0,0 C 89 % 0 cb 1015,5 hPa 0,0 l/m 0,0 km/h (0 Bft) N-NW 335 0 min 0,000 mm 0 W/m 5,9 C 7,6 C 0,0 km/h (0 Bft) 0,00 %
29.08.2011 07:17 7,7 C 0,0 C 0,0 C 89 % 0 cb 1015,5 hPa 0,0 l/m 0,0 km/h (0 Bft) N 355 0 min 0,000 mm 0 W/m 6,0 C 7,7 C 0,0 km/h (0 Bft) 0,00 %
29.08.2011 07:22 7,8 C 0,0 C 0,0 C 89 % 0 cb 1015,5 hPa 0,0 l/m 0,0 km/h (0 Bft) N 355 0 min 0,000 mm 0 W/m 6,1 C 7,8 C 0,0 km/h (0 Bft) 0,00 %
29.08.2011 07:27 8,0 C 0,0 C 0,0 C 89 % 0 cb 1015,5 hPa 0,0 l/m 0,0 km/h (0 Bft) W-NW 285 0 min 0,000 mm 0 W/m 6,3 C 8,0 C 0,0 km/h (0 Bft) 0,00 %
29.08.2011 07:32 8,2 C 0,0 C 0,0 C 89 % 0 cb 1015,5 hPa 0,0 l/m 0,0 km/h (0 Bft) O-SO 120 0 min 0,000 mm 0 W/m 6,5 C 8,2 C 0,0 km/h (0 Bft) 0,00 %
29.08.2011 07:37 8,5 C 0,0 C 0,0 C 89 % 0 cb 1015,5 hPa 0,0 l/m 0,0 km/h (0 Bft) S 175 0 min 0,000 mm 0 W/m 6,8 C 8,5 C 0,0 km/h (0 Bft) 0,00 %
29.08.2011 07:42 8,6 C 0,0 C 0,0 C 89 % 0 cb 1015,5 hPa 0,0 l/m 0,0 km/h (0 Bft) S-SO 155 0 min 0,000 mm 0 W/m 6,9 C 8,6 C 0,0 km/h (0 Bft) 0,00 %
29.08.2011 07:47 8,7 C 0,0 C 0,0 C 88 % 0 cb 1015,5 hPa 0,0 l/m 0,0 km/h (0 Bft) S 175 0 min 0,000 mm 0 W/m 6,8 C 8,7 C 0,0 km/h (0 Bft) 0,00 %
29.08.2011 07:52 8,9 C 0,0 C 0,0 C 88 % 0 cb 1015,5 hPa 0,0 l/m 0,0 km/h (0 Bft) S-SO 150 0 min 0,000 mm 0 W/m 7,0 C 8,9 C 0,0 km/h (0 Bft) 0,00 %
29.08.2011 07:57 8,9 C 0,0 C 0,0 C 88 % 0 cb 1015,5 hPa 0,0 l/m 0,0 km/h (0 Bft) SO 130 0 min 0,000 mm 0 W/m 7,0 C 8,9 C 0,0 km/h (0 Bft) 0,00 %
29.08.2011 08:02 9,1 C 0,0 C 0,0 C 88 % 0 cb 1015,5 hPa 0,0 l/m 0,0 km/h (0 Bft) O-SO 110 0 min 0,000 mm 0 W/m 7,2 C 9,1 C 0,0 km/h (0 Bft) 0,00 %
29.08.2011 08:07 9,3 C 0,0 C 0,0 C 88 % 0 cb 1015,5 hPa 0,0 l/m 0,0 km/h (0 Bft) SW 225 0 min 0,000 mm 0 W/m 7,4 C 9,3 C 0,0 km/h (0 Bft) 0,00 %
29.08.2011 08:12 9,4 C 0,0 C 0,0 C 88 % 0 cb 1015,5 hPa 0,0 l/m 0,0 km/h (0 Bft) SW 235 0 min 0,000 mm 0 W/m 7,5 C 9,4 C 0,0 km/h (0 Bft) 0,00 %
29.08.2011 08:17 9,5 C 0,0 C 0,0 C 89 % 0 cb 1015,5 hPa 0,0 l/m 0,0 km/h (0 Bft) S-SO 165 0 min 0,000 mm 0 W/m 7,8 C 9,5 C 0,0 km/h (0 Bft) 0,00 %
29.08.2011 08:22 9,4 C 0,0 C 0,0 C 88 % 0 cb 1015,5 hPa 0,0 l/m 0,0 km/h (0 Bft) S 170 0 min 0,000 mm 0 W/m 7,5 C 9,4 C 0,0 km/h (0 Bft) 0,00 %
29.08.2011 08:27 9,8 C 0,0 C 0,0 C 89 % 0 cb 1015,5 hPa 0,0 l/m 0,0 km/h (0 Bft) SW 220 0 min 0,000 mm 0 W/m 8,1 C 9,8 C 0,0 km/h (0 Bft) 0,00 %
29.08.2011 08:32 9,6 C 0,0 C 0,0 C 89 % 0 cb 1015,5 hPa 0,0 l/m 0,0 km/h (0 Bft) SO 145 0 min 0,000 mm 0 W/m 7,9 C 9,6 C 0,0 km/h (0 Bft) 0,00 %
29.08.2011 08:37 9,8 C 0,0 C 0,0 C 89 % 0 cb 1015,5 hPa 0,0 l/m 0,0 km/h (0 Bft) S-SW 200 0 min 0,000 mm 0 W/m 8,1 C 9,8 C 0,0 km/h (0 Bft) 0,00 %
29.08.2011 08:42 10,1 C 0,0 C 0,0 C 89 % 3 cb 1015,5 hPa 0,0 l/m 0,0 km/h (0 Bft) W 260 0 min 0,000 mm 0 W/m 8,4 C 10,1 C 0,0 km/h (0 Bft) 0,00 %
29.08.2011 08:47 10,4 C 0,0 C 0,0 C 88 % 1 cb 1015,5 hPa 0,0 l/m 0,0 km/h (0 Bft) SW 225 0 min 0,000 mm 0 W/m 8,5 C 10,4 C 0,0 km/h (0 Bft) 0,00 %
29.08.2011 08:52 10,4 C 0,0 C 0,0 C 88 % 0 cb 1015,5 hPa 0,0 l/m 0,0 km/h (0 Bft) S-SW 210 0 min 0,000 mm 0 W/m 8,5 C 10,4 C 0,0 km/h (0 Bft) 0,00 %
29.08.2011 08:57 10,6 C 0,0 C 0,0 C 88 % 0 cb 1015,5 hPa 0,0 l/m 0,0 km/h (0 Bft) N-NW 330 0 min 0,000 mm 0 W/m 8,7 C 10,6 C 0,0 km/h (0 Bft) 0,00 %
29.08.2011 09:02 10,6 C 0,0 C 0,0 C 88 % 1 cb 1015,5 hPa 0,0 l/m 0,0 km/h (0 Bft) W 270 0 min 0,000 mm 0 W/m 8,7 C 10,6 C 0,0 km/h (0 Bft) 0,00 %
29.08.2011 09:07 10,9 C 0,0 C 0,0 C 88 % 3 cb 1015,5 hPa 0,0 l/m 0,0 km/h (0 Bft) W 260 0 min 0,000 mm 0 W/m 9,0 C 10,9 C 0,0 km/h (0 Bft) 0,00 %
29.08.2011 09:12 11,1 C 0,0 C 0,0 C 88 % 1 cb 1015,5 hPa 0,0 l/m 0,0 km/h (0 Bft) W-SW 245 0 min 0,000 mm 0 W/m 9,2 C 11,1 C 0,0 km/h (0 Bft) 0,00 %
29.08.2011 09:17 11,7 C 0,0 C 0,0 C 87 % 5 cb 1015,5 hPa 0,0 l/m 0,0 km/h (0 Bft) W 260 0 min 0,000 mm 0 W/m 9,6 C 11,7 C 0,0 km/h (0 Bft) 0,00 %
29.08.2011 09:22 12,1 C 0,0 C 0,0 C 87 % 5 cb 1015,5 hPa 0,0 l/m 0,0 km/h (0 Bft) SW 220 0 min 0,000 mm 0 W/m 10,0 C 12,1 C 0,0 km/h (0 Bft) 0,00 %
29.08.2011 09:27 12,3 C 0,0 C 0,0 C 85 % 6 cb 1015,5 hPa 0,0 l/m 4,5 km/h (1 Bft) W 260 0 min 0,000 mm 0 W/m 9,9 C 12,3 C 4,5 km/h (1 Bft) 0,00 %
29.08.2011 09:32 12,6 C 0,0 C 0,0 C 84 % 5 cb 1015,5 hPa 0,0 l/m 5,4 km/h (1 Bft) SW 220 0 min 0,000 mm 0 W/m 10,0 C 12,6 C 5,4 km/h (1 Bft) 0,00 %
29.08.2011 09:37 12,7 C 0,0 C 0,0 C 83 % 4 cb 1015,5 hPa 0,0 l/m 5,4 km/h (1 Bft) S-SO 150 0 min 0,000 mm 0 W/m 9,9 C 12,7 C 5,4 km/h (1 Bft) 0,00 %
29.08.2011 09:42 13,0 C 0,0 C 0,0 C 81 % 6 cb 1015,5 hPa 0,0 l/m 1,2 km/h (1 Bft) SW 225 0 min 0,000 mm 0 W/m 9,8 C 13,0 C 1,2 km/h (1 Bft) 0,00 %
29.08.2011 09:47 13,4 C 0,0 C 0,0 C 80 % 4 cb 1015,5 hPa 0,0 l/m 4,8 km/h (1 Bft) NW 310 0 min 0,000 mm 0 W/m 10,0 C 13,4 C 4,8 km/h (1 Bft) 0,00 %
29.08.2011 09:52 13,6 C 0,0 C 0,0 C 79 % 6 cb 1015,5 hPa 0,0 l/m 7,3 km/h (2 Bft) W-NW 290 0 min 0,000 mm 0 W/m 10,0 C 13,6 C 7,3 km/h (2 Bft) 0,00 %
29.08.2011 09:57 13,6 C 0,0 C 0,0 C 78 % 2 cb 1015,5 hPa 0,0 l/m 9,1 km/h (2 Bft) S-SO 160 0 min 0,000 mm 0 W/m 9,8 C 13,6 C 9,1 km/h (2 Bft) 0,00 %
29.08.2011 10:02 13,8 C 0,0 C 0,0 C 76 % 8 cb 1015,5 hPa 0,0 l/m 5,7 km/h (1 Bft) S-SW 210 0 min 0,000 mm 0 W/m 9,6 C 13,8 C 5,7 km/h (1 Bft) 0,00 %
29.08.2011 10:07 13,9 C 0,0 C 0,0 C 75 % 4 cb 1015,5 hPa 0,0 l/m 8,8 km/h (2 Bft) S 175 0 min 0,000 mm 0 W/m 9,5 C 13,9 C 8,8 km/h (2 Bft) 0,00 %
29.08.2011 10:12 14,0 C 0,0 C 0,0 C 75 % 5 cb 1015,5 hPa 0,0 l/m 8,5 km/h (2 Bft) SW 225 0 min 0,000 mm 0 W/m 9,6 C 14,0 C 8,5 km/h (2 Bft) 0,00 %
29.08.2011 10:17 14,3 C 0,0 C 0,0 C 73 % 2 cb 1015,5 hPa 0,0 l/m 3,3 km/h (1 Bft) S-SW 210 0 min 0,000 mm 0 W/m 9,5 C 14,3 C 3,3 km/h (1 Bft) 0,00 %
29.08.2011 10:22 14,2 C 0,0 C 0,0 C 71 % 7 cb 1015,5 hPa 0,0 l/m 11,5 km/h (2 Bft) W 270 0 min 0,000 mm 0 W/m 9,0 C 14,2 C 11,5 km/h (2 Bft) 0,00 %
29.08.2011 10:27 14,5 C 0,0 C 0,0 C 70 % 6 cb 1015,5 hPa 0,0 l/m 9,4 km/h (2 Bft) SW 230 0 min 0,000 mm 0 W/m 9,1 C 14,5 C 9,4 km/h (2 Bft) 0,00 %
29.08.2011 10:32 14,8 C 0,0 C 0,0 C 71 % 4 cb 1015,5 hPa 0,0 l/m 5,7 km/h (1 Bft) S-SW 195 0 min 0,000 mm 0 W/m 9,6 C 14,8 C 5,7 km/h (1 Bft) 0,00 %
29.08.2011 10:37 14,6 C 0,0 C 0,0 C 69 % 6 cb 1015,5 hPa 0,0 l/m 10,0 km/h (2 Bft) NW 325 0 min 0,000 mm 0 W/m 9,0 C 14,6 C 10,0 km/h (2 Bft) 0,00 %
29.08.2011 10:42 14,8 C 0,0 C 0,0 C 69 % 4 cb 1015,5 hPa 0,0 l/m 11,5 km/h (2 Bft) NW 305 0 min 0,000 mm 0 W/m 9,2 C 14,8 C 11,5 km/h (2 Bft) 0,00 %
29.08.2011 10:47 14,6 C 0,0 C 0,0 C 68 % 3 cb 1015,5 hPa 0,0 l/m 19,4 km/h (3 Bft) W-NW 295 0 min 0,000 mm 0 W/m 8,8 C 14,6 C 19,4 km/h (3 Bft) 0,00 %
29.08.2011 10:52 14,8 C 0,0 C 0,0 C 68 % 6 cb 1016,5 hPa 0,0 l/m 15,7 km/h (3 Bft) W-NW 300 0 min 0,000 mm 0 W/m 9,0 C 14,8 C 15,7 km/h (3 Bft) 0,00 %
29.08.2011 10:57 15,4 C 0,0 C 0,0 C 69 % 4 cb 1016,5 hPa 0,0 l/m 7,6 km/h (2 Bft) SW 215 0 min 0,000 mm 0 W/m 9,7 C 15,4 C 7,6 km/h (2 Bft) 0,00 %
29.08.2011 11:02 15,2 C 0,0 C 0,0 C 68 % 6 cb 1016,5 hPa 0,0 l/m 11,5 km/h (2 Bft) S-SO 155 0 min 0,000 mm 0 W/m 9,3 C 15,2 C 11,5 km/h (2 Bft) 0,00 %
29.08.2011 11:07 15,4 C 0,0 C 0,0 C 68 % 4 cb 1016,5 hPa 0,0 l/m 9,7 km/h (2 Bft) NW 315 0 min 0,000 mm 0 W/m 9,5 C 15,4 C 9,7 km/h (2 Bft) 0,00 %
29.08.2011 11:12 15,4 C 0,0 C 0,0 C 66 % 6 cb 1016,5 hPa 0,0 l/m 17,6 km/h (3 Bft) S-SW 205 0 min 0,000 mm 0 W/m 9,1 C 15,4 C 17,6 km/h (3 Bft) 0,00 %
29.08.2011 11:17 15,5 C 0,0 C 0,0 C 66 % 5 cb 1016,5 hPa 0,0 l/m 14,2 km/h (3 Bft) S-SW 200 0 min 0,000 mm 0 W/m 9,2 C 15,5 C 14,2 km/h (3 Bft) 0,00 %
29.08.2011 11:22 15,3 C 0,0 C 0,0 C 66 % 5 cb 1016,5 hPa 0,0 l/m 17,2 km/h (3 Bft) W-SW 245 0 min 0,000 mm 0 W/m 9,0 C 15,3 C 17,2 km/h (3 Bft) 0,00 %
29.08.2011 11:27 15,4 C 0,0 C 0,0 C 66 % 5 cb 1016,5 hPa 0,0 l/m 15,7 km/h (3 Bft) SW 220 0 min 0,000 mm 0 W/m 9,1 C 15,4 C 15,7 km/h (3 Bft) 0,00 %
29.08.2011 11:32 14,9 C 0,0 C 0,0 C 66 % 1 cb 1016,5 hPa 0,0 l/m 11,8 km/h (2 Bft) S-SW 210 0 min 0,000 mm 0 W/m 8,6 C 14,9 C 11,8 km/h (2 Bft) 0,00 %
29.08.2011 11:37 15,0 C 0,0 C 0,0 C 66 % 3 cb 1016,5 hPa 0,0 l/m 14,8 km/h (3 Bft) W-SW 240 0 min 0,000 mm 0 W/m 8,7 C 15,0 C 14,8 km/h (3 Bft) 0,00 %
29.08.2011 11:42 15,8 C 0,0 C 0,0 C 65 % 5 cb 1016,5 hPa 0,0 l/m 7,0 km/h (2 Bft) W 280 0 min 0,000 mm 0 W/m 9,2 C 15,8 C 7,0 km/h (2 Bft) 0,00 %
29.08.2011 11:47 15,5 C 0,0 C 0,0 C 65 % 5 cb 1016,5 hPa 0,0 l/m 14,5 km/h (3 Bft) SW 225 0 min 0,000 mm 0 W/m 8,9 C 15,5 C 14,5 km/h (3 Bft) 0,00 %
29.08.2011 11:52 15,6 C 0,0 C 0,0 C 65 % 4 cb 1016,5 hPa 0,0 l/m 14,2 km/h (3 Bft) S 170 0 min 0,000 mm 0 W/m 9,0 C 15,6 C 14,2 km/h (3 Bft) 0,00 %
29.08.2011 11:57 16,1 C 0,0 C 0,0 C 64 % 6 cb 1016,5 hPa 0,0 l/m 13,3 km/h (3 Bft) W-SW 250 0 min 0,000 mm 0 W/m 9,3 C 16,1 C 13,3 km/h (3 Bft) 0,00 %
29.08.2011 12:02 15,6 C 0,0 C 0,0 C 63 % 4 cb 1016,5 hPa 0,0 l/m 17,9 km/h (3 Bft) W 270 0 min 0,000 mm 0 W/m 8,6 C 15,6 C 17,9 km/h (3 Bft) 0,00 %
29.08.2011 12:07 15,3 C 0,0 C 0,0 C 63 % 3 cb 1015,5 hPa 0,0 l/m 21,8 km/h (4 Bft) W-SW 255 0 min 0,000 mm 0 W/m 8,3 C 15,3 C 21,8 km/h (4 Bft) 0,00 %
29.08.2011 12:12 16,2 C 0,0 C 0,0 C 63 % 5 cb 1015,5 hPa 0,0 l/m 11,8 km/h (2 Bft) W 270 0 min 0,000 mm 0 W/m 9,1 C 16,2 C 11,8 km/h (2 Bft) 0,00 %
29.08.2011 12:17 16,5 C 0,0 C 0,0 C 62 % 5 cb 1015,5 hPa 0,0 l/m 20,6 km/h (4 Bft) N-NO 15 0 min 0,000 mm 0 W/m 9,2 C 16,5 C 20,6 km/h (4 Bft) 0,00 %
29.08.2011 12:22 16,7 C 0,0 C 0,0 C 62 % 5 cb 1016,5 hPa 0,0 l/m 8,8 km/h (2 Bft) S-SO 150 0 min 0,000 mm 0 W/m 9,4 C 16,7 C 8,8 km/h (2 Bft) 0,00 %
29.08.2011 12:27 16,0 C 0,0 C 0,0 C 62 % 5 cb 1016,5 hPa 0,0 l/m 15,7 km/h (3 Bft) W-NW 300 0 min 0,000 mm 0 W/m 8,7 C 16,0 C 15,7 km/h (3 Bft) 0,00 %
29.08.2011 12:32 16,3 C 0,0 C 0,0 C 61 % 5 cb 1016,5 hPa 0,0 l/m 18,5 km/h (3 Bft) W 270 0 min 0,000 mm 0 W/m 8,8 C 16,3 C 18,5 km/h (3 Bft) 0,00 %
29.08.2011 12:37 16,1 C 0,0 C 0,0 C 61 % 4 cb 1015,5 hPa 0,0 l/m 15,4 km/h (3 Bft) W 260 0 min 0,000 mm 0 W/m 8,6 C 16,1 C 15,4 km/h (3 Bft) 0,00 %
29.08.2011 12:42 16,6 C 0,0 C 0,0 C 60 % 6 cb 1015,5 hPa 0,0 l/m 14,5 km/h (3 Bft) W 270 0 min 0,000 mm 0 W/m 8,8 C 16,6 C 14,5 km/h (3 Bft) 0,00 %
29.08.2011 12:47 16,5 C 0,0 C 0,0 C 60 % 4 cb 1015,5 hPa 0,0 l/m 12,7 km/h (3 Bft) W 280 0 min 0,000 mm 0 W/m 8,7 C 16,5 C 12,7 km/h (3 Bft) 0,00 %
29.08.2011 12:52 16,4 C 0,0 C 0,0 C 60 % 6 cb 1016,5 hPa 0,0 l/m 14,8 km/h (3 Bft) S-SO 160 0 min 0,000 mm 0 W/m 8,6 C 16,4 C 14,8 km/h (3 Bft) 0,00 %
29.08.2011 12:57 17,1 C 0,0 C 0,0 C 60 % 5 cb 1016,5 hPa 0,0 l/m 9,4 km/h (2 Bft) S 185 0 min 0,000 mm 0 W/m 9,3 C 17,1 C 9,4 km/h (2 Bft) 0,00 %
29.08.2011 13:02 16,7 C 0,0 C 0,0 C 60 % 5 cb 1016,5 hPa 0,0 l/m 16,6 km/h (3 Bft) W-NW 285 0 min 0,000 mm 0 W/m 8,9 C 16,7 C 16,6 km/h (3 Bft) 0,00 %
29.08.2011 13:07 17,6 C 0,0 C 0,0 C 60 % 5 cb 1015,5 hPa 0,0 l/m 10,6 km/h (2 Bft) N-NO 20 0 min 0,000 mm 0 W/m 9,7 C 17,6 C 10,6 km/h (2 Bft) 0,00 %
29.08.2011 13:12 16,9 C 0,0 C 0,0 C 60 % 5 cb 1015,5 hPa 0,0 l/m 15,4 km/h (3 Bft) W 275 0 min 0,000 mm 0 W/m 9,1 C 16,9 C 15,4 km/h (3 Bft) 0,00 %
29.08.2011 13:17 17,1 C 0,0 C 0,0 C 59 % 5 cb 1015,5 hPa 0,0 l/m 11,5 km/h (2 Bft) NW 320 0 min 0,000 mm 0 W/m 9,0 C 17,1 C 11,5 km/h (2 Bft) 0,00 %
29.08.2011 13:22 16,8 C 0,0 C 0,0 C 59 % 4 cb 1016,5 hPa 0,0 l/m 13,3 km/h (3 Bft) W-SW 255 0 min 0,000 mm 0 W/m 8,7 C 16,8 C 13,3 km/h (3 Bft) 0,00 %
29.08.2011 13:27 17,5 C 0,0 C 0,0 C 60 % 6 cb 1016,5 hPa 0,0 l/m 15,4 km/h (3 Bft) SW 220 0 min 0,000 mm 0 W/m 9,6 C 17,5 C 15,4 km/h (3 Bft) 0,00 %
29.08.2011 13:32 16,8 C 0,0 C 0,0 C 59 % 5 cb 1016,5 hPa 0,0 l/m 16,0 km/h (3 Bft) NW 305 0 min 0,000 mm 0 W/m 8,7 C 16,8 C 16,0 km/h (3 Bft) 0,00 %
29.08.2011 13:37 16,2 C 0,0 C 0,0 C 60 % 6 cb 1015,5 hPa 0,0 l/m 18,8 km/h (3 Bft) SW 225 0 min 0,000 mm 0 W/m 8,4 C 16,2 C 18,8 km/h (3 Bft) 0,00 %
29.08.2011 13:42 16,0 C 0,0 C 0,0 C 61 % 5 cb 1015,5 hPa 0,0 l/m 16,0 km/h (3 Bft) SW 230 0 min 0,000 mm 0 W/m 8,5 C 16,0 C 16,0 km/h (3 Bft) 0,00 %
29.08.2011 13:47 16,1 C 0,0 C 0,0 C 61 % 3 cb 1015,5 hPa 0,0 l/m 10,0 km/h (2 Bft) W-SW 255 0 min 0,000 mm 0 W/m 8,6 C 16,1 C 10,0 km/h (2 Bft) 0,00 %
29.08.2011 13:52 15,9 C 0,0 C 0,0 C 61 % 2 cb 1015,5 hPa 0,0 l/m 13,3 km/h (3 Bft) W-NW 290 0 min 0,000 mm 0 W/m 8,4 C 15,9 C 13,3 km/h (3 Bft) 0,00 %
29.08.2011 13:57 15,8 C 0,0 C 0,0 C 62 % 0 cb 1015,5 hPa 0,0 l/m 7,9 km/h (2 Bft) S-SO 155 0 min 0,000 mm 0 W/m 8,5 C 15,8 C 7,9 km/h (2 Bft) 0,00 %
29.08.2011 14:02 15,8 C 0,0 C 0,0 C 63 % 3 cb 1015,5 hPa 0,0 l/m 11,8 km/h (2 Bft) SW 230 0 min 0,000 mm 0 W/m 8,8 C 15,8 C 11,8 km/h (2 Bft) 0,00 %
29.08.2011 14:07 15,7 C 0,0 C 0,0 C 62 % 3 cb 1016,5 hPa 0,0 l/m 10,0 km/h (2 Bft) SW 225 0 min 0,000 mm 0 W/m 8,4 C 15,7 C 10,0 km/h (2 Bft) 0,00 %
29.08.2011 14:12 15,5 C 0,0 C 0,0 C 63 % 0 cb 1016,5 hPa 0,0 l/m 7,9 km/h (2 Bft) N 355 0 min 0,000 mm 0 W/m 8,5 C 15,5 C 7,9 km/h (2 Bft) 0,00 %
29.08.2011 14:17 15,4 C 0,0 C 0,0 C 62 % 0 cb 1016,5 hPa 0,0 l/m 7,6 km/h (2 Bft) W 265 0 min 0,000 mm 0 W/m 8,2 C 15,4 C 7,6 km/h (2 Bft) 0,00 %
29.08.2011 14:22 15,8 C 0,0 C 0,0 C 62 % 5 cb 1015,5 hPa 0,0 l/m 10,9 km/h (2 Bft) SW 215 0 min 0,000 mm 0 W/m 8,5 C 15,8 C 10,9 km/h (2 Bft) 0,00 %
29.08.2011 14:27 15,8 C 0,0 C 0,0 C 63 % 5 cb 1015,5 hPa 0,0 l/m 12,7 km/h (3 Bft) W 270 0 min 0,000 mm 0 W/m 8,8 C 15,8 C 12,7 km/h (3 Bft) 0,00 %
29.08.2011 14:32 16,2 C 0,0 C 0,0 C 64 % 5 cb 1015,5 hPa 0,0 l/m 11,5 km/h (2 Bft) O-NO 70 0 min 0,000 mm 0 W/m 9,4 C 16,2 C 11,5 km/h (2 Bft) 0,00 %
29.08.2011 14:37 16,9 C 0,0 C 0,0 C 62 % 6 cb 1015,5 hPa 0,0 l/m 6,1 km/h (2 Bft) W-SW 255 0 min 0,000 mm 0 W/m 9,6 C 16,9 C 6,1 km/h (2 Bft) 0,00 %
29.08.2011 14:42 16,9 C 0,0 C 0,0 C 60 % 4 cb 1015,5 hPa 0,0 l/m 13,9 km/h (3 Bft) N 0 0 min 0,000 mm 0 W/m 9,1 C 16,9 C 13,9 km/h (3 Bft) 0,00 %
29.08.2011 14:47 16,8 C 0,0 C 0,0 C 60 % 5 cb 1015,5 hPa 0,0 l/m 9,1 km/h (2 Bft) O-SO 110 0 min 0,000 mm 0 W/m 9,0 C 16,8 C 9,1 km/h (2 Bft) 0,00 %
29.08.2011 14:52 16,5 C 0,0 C 0,0 C 60 % 4 cb 1015,5 hPa 0,0 l/m 12,1 km/h (2 Bft) SW 225 0 min 0,000 mm 0 W/m 8,7 C 16,5 C 12,1 km/h (2 Bft) 0,00 %
29.08.2011 14:57 15,8 C 0,0 C 0,0 C 61 % 1 cb 1015,5 hPa 0,0 l/m 13,3 km/h (3 Bft) NW 315 0 min 0,000 mm 0 W/m 8,3 C 15,8 C 13,3 km/h (3 Bft) 0,00 %
29.08.2011 15:02 15,8 C 0,0 C 0,0 C 62 % 2 cb 1015,5 hPa 0,0 l/m 12,7 km/h (3 Bft) W 270 0 min 0,000 mm 0 W/m 8,5 C 15,8 C 12,7 km/h (3 Bft) 0,00 %
29.08.2011 15:07 15,8 C 0,0 C 0,0 C 63 % 0 cb 1015,5 hPa 0,0 l/m 8,5 km/h (2 Bft) S-SW 210 0 min 0,000 mm 0 W/m 8,8 C 15,8 C 8,5 km/h (2 Bft) 0,00 %
29.08.2011 15:12 15,7 C 0,0 C 0,0 C 62 % 0 cb 1015,5 hPa 0,0 l/m 10,0 km/h (2 Bft) W 260 0 min 0,000 mm 0 W/m 8,4 C 15,7 C 10,0 km/h (2 Bft) 0,00 %
29.08.2011 15:17 15,6 C 0,0 C 0,0 C 62 % 0 cb 1015,5 hPa 0,0 l/m 10,0 km/h (2 Bft) SW 235 0 min 0,000 mm 0 W/m 8,3 C 15,6 C 10,0 km/h (2 Bft) 0,00 %
29.08.2011 15:22 15,8 C 0,0 C 0,0 C 64 % 1 cb 1015,5 hPa 0,0 l/m 6,1 km/h (2 Bft) W-SW 240 0 min 0,000 mm 0 W/m 9,0 C 15,8 C 6,1 km/h (2 Bft) 0,00 %
29.08.2011 15:27 15,8 C 0,0 C 0,0 C 63 % 3 cb 1015,5 hPa 0,0 l/m 10,3 km/h (2 Bft) W-NW 295 0 min 0,000 mm 0 W/m 8,8 C 15,8 C 10,3 km/h (2 Bft) 0,00 %
29.08.2011 15:32 15,7 C 0,0 C 0,0 C 63 % 1 cb 1015,5 hPa 0,0 l/m 10,0 km/h (2 Bft) W 275 0 min 0,000 mm 0 W/m 8,7 C 15,7 C 10,0 km/h (2 Bft) 0,00 %
29.08.2011 15:37 15,5 C 0,0 C 0,0 C 63 % 0 cb 1015,5 hPa 0,0 l/m 7,3 km/h (2 Bft) W-SW 255 0 min 0,000 mm 0 W/m 8,5 C 15,5 C 7,3 km/h (2 Bft) 0,00 %
29.08.2011 15:42 15,4 C 0,0 C 0,0 C 63 % 0 cb 1015,5 hPa 0,0 l/m 6,7 km/h (2 Bft) S-SW 205 0 min 0,000 mm 0 W/m 8,4 C 15,4 C 6,7 km/h (2 Bft) 0,00 %
29.08.2011 15:47 15,2 C 0,0 C 0,0 C 64 % 0 cb 1015,5 hPa 0,0 l/m 13,0 km/h (3 Bft) W 265 0 min 0,000 mm 0 W/m 8,4 C 15,2 C 13,0 km/h (3 Bft) 0,00 %
29.08.2011 15:52 15,1 C 0,0 C 0,0 C 65 % 0 cb 1016,5 hPa 0,0 l/m 4,8 km/h (1 Bft) S 175 0 min 0,000 mm 0 W/m 8,6 C 15,1 C 4,8 km/h (1 Bft) 0,00 %
29.08.2011 15:57 15,0 C 0,0 C 0,0 C 65 % 0 cb 1016,5 hPa 0,0 l/m 9,1 km/h (2 Bft) W-SW 240 0 min 0,000 mm 0 W/m 8,5 C 15,0 C 9,1 km/h (2 Bft) 0,00 %
29.08.2011 16:02 14,9 C 0,0 C 0,0 C 65 % 0 cb 1016,5 hPa 0,0 l/m 6,4 km/h (2 Bft) W-NW 295 0 min 0,000 mm 0 W/m 8,4 C 14,9 C 6,4 km/h (2 Bft) 0,00 %
29.08.2011 16:07 14,8 C 0,0 C 0,0 C 65 % 0 cb 1015,5 hPa 0,0 l/m 8,2 km/h (2 Bft) W 270 0 min 0,000 mm 0 W/m 8,3 C 14,8 C 8,2 km/h (2 Bft) 0,00 %
29.08.2011 16:12 14,7 C 0,0 C 0,0 C 65 % 0 cb 1015,5 hPa 0,0 l/m 9,1 km/h (2 Bft) W-SW 255 0 min 0,000 mm 0 W/m 8,2 C 14,7 C 9,1 km/h (2 Bft) 0,00 %
29.08.2011 16:17 14,7 C 0,0 C 0,0 C 66 % 0 cb 1015,5 hPa 0,0 l/m 6,7 km/h (2 Bft) W 270 0 min 0,000 mm 0 W/m 8,4 C 14,7 C 6,7 km/h (2 Bft) 0,00 %
29.08.2011 16:22 14,8 C 0,0 C 0,0 C 66 % 0 cb 1015,5 hPa 0,0 l/m 6,1 km/h (2 Bft) SW 235 0 min 0,000 mm 0 W/m 8,5 C 14,8 C 6,1 km/h (2 Bft) 0,00 %
29.08.2011 16:27 14,6 C 0,0 C 0,0 C 66 % 0 cb 1015,5 hPa 0,0 l/m 9,4 km/h (2 Bft) NW 315 0 min 0,000 mm 0 W/m 8,3 C 14,6 C 9,4 km/h (2 Bft) 0,00 %
29.08.2011 16:32 14,7 C 0,0 C 0,0 C 67 % 0 cb 1015,5 hPa 0,0 l/m 5,1 km/h (1 Bft) W 260 0 min 0,000 mm 0 W/m 8,6 C 14,7 C 5,1 km/h (1 Bft) 0,00 %
29.08.2011 16:37 14,9 C 0,0 C 0,0 C 66 % 0 cb 1015,5 hPa 0,0 l/m 10,3 km/h (2 Bft) NW 305 0 min 0,000 mm 0 W/m 8,6 C 14,9 C 10,3 km/h (2 Bft) 0,00 %
29.08.2011 16:42 15,7 C 0,0 C 0,0 C 66 % 6 cb 1015,5 hPa 0,0 l/m 6,1 km/h (2 Bft) W-SW 240 0 min 0,000 mm 0 W/m 9,4 C 15,7 C 6,1 km/h (2 Bft) 0,00 %
29.08.2011 16:47 16,2 C 0,0 C 0,0 C 64 % 2 cb 1015,5 hPa 0,0 l/m 8,5 km/h (2 Bft) W-NW 290 0 min 0,000 mm 0 W/m 9,4 C 16,2 C 8,5 km/h (2 Bft) 0,00 %
29.08.2011 16:52 16,6 C 0,0 C 0,0 C 62 % 7 cb 1015,5 hPa 0,0 l/m 8,2 km/h (2 Bft) SW 220 0 min 0,000 mm 0 W/m 9,3 C 16,6 C 8,2 km/h (2 Bft) 0,00 %
29.08.2011 16:57 17,1 C 0,0 C 0,0 C 61 % 5 cb 1015,5 hPa 0,0 l/m 8,2 km/h (2 Bft) N-NW 345 0 min 0,000 mm 0 W/m 9,5 C 17,1 C 8,2 km/h (2 Bft) 0,00 %
29.08.2011 17:02 17,1 C 0,0 C 0,0 C 59 % 5 cb 1015,5 hPa 0,0 l/m 13,6 km/h (3 Bft) SW 230 0 min 0,000 mm 0 W/m 9,0 C 17,1 C 13,6 km/h (3 Bft) 0,00 %
29.08.2011 17:07 16,4 C 0,0 C 0,0 C 59 % 3 cb 1015,5 hPa 0,0 l/m 14,8 km/h (3 Bft) W 260 0 min 0,000 mm 0 W/m 8,4 C 16,4 C 14,8 km/h (3 Bft) 0,00 %
29.08.2011 17:12 15,8 C 0,0 C 0,0 C 60 % 0 cb 1015,5 hPa 0,0 l/m 11,5 km/h (2 Bft) W 280 0 min 0,000 mm 0 W/m 8,1 C 15,8 C 11,5 km/h (2 Bft) 0,00 %
29.08.2011 17:17 15,7 C 0,0 C 0,0 C 60 % 0 cb 1015,5 hPa 0,0 l/m 14,5 km/h (3 Bft) W 280 0 min 0,000 mm 0 W/m 8,0 C 15,7 C 14,5 km/h (3 Bft) 0,00 %
29.08.2011 17:22 15,8 C 0,0 C 0,0 C 60 % 1 cb 1015,5 hPa 0,0 l/m 8,8 km/h (2 Bft) W-NW 285 0 min 0,000 mm 0 W/m 8,1 C 15,8 C 8,8 km/h (2 Bft) 0,00 %
29.08.2011 17:27 16,0 C 0,0 C 0,0 C 60 % 4 cb 1015,5 hPa 0,0 l/m 11,2 km/h (2 Bft) NW 315 0 min 0,000 mm 0 W/m 8,2 C 16,0 C 11,2 km/h (2 Bft) 0,00 %
29.08.2011 17:32 16,2 C 0,0 C 0,0 C 59 % 3 cb 1015,5 hPa 0,0 l/m 10,9 km/h (2 Bft) N 355 0 min 0,000 mm 0 W/m 8,2 C 16,2 C 10,9 km/h (2 Bft) 0,00 %
29.08.2011 17:37 16,0 C 0,0 C 0,0 C 59 % 0 cb 1015,5 hPa 0,0 l/m 18,5 km/h (3 Bft) O-NO 60 0 min 0,000 mm 0 W/m 8,0 C 16,0 C 18,5 km/h (3 Bft) 0,00 %
29.08.2011 17:42 15,8 C 0,0 C 0,0 C 60 % 0 cb 1015,5 hPa 0,0 l/m 13,0 km/h (3 Bft) W-SW 245 0 min 0,000 mm 0 W/m 8,1 C 15,8 C 13,0 km/h (3 Bft) 0,00 %
29.08.2011 17:47 15,8 C 0,0 C 0,0 C 61 % 0 cb 1015,5 hPa 0,0 l/m 10,0 km/h (2 Bft) W-SW 255 0 min 0,000 mm 0 W/m 8,3 C 15,8 C 10,0 km/h (2 Bft) 0,00 %
29.08.2011 17:52 15,6 C 0,0 C 0,0 C 62 % 0 cb 1015,5 hPa 0,0 l/m 10,0 km/h (2 Bft) S 185 0 min 0,000 mm 0 W/m 8,3 C 15,6 C 10,0 km/h (2 Bft) 0,00 %
29.08.2011 17:57 15,6 C 0,0 C 0,0 C 63 % 0 cb 1015,5 hPa 0,0 l/m 8,8 km/h (2 Bft) W-NW 290 0 min 0,000 mm 0 W/m 8,6 C 15,6 C 8,8 km/h (2 Bft) 0,00 %
29.08.2011 18:02 15,7 C 0,0 C 0,0 C 63 % 0 cb 1015,5 hPa 0,0 l/m 9,1 km/h (2 Bft) W-SW 250 0 min 0,000 mm 0 W/m 8,7 C 15,7 C 9,1 km/h (2 Bft) 0,00 %
29.08.2011 18:07 15,6 C 0,0 C 0,0 C 63 % 0 cb 1015,5 hPa 0,0 l/m 9,1 km/h (2 Bft) W 270 0 min 0,000 mm 0 W/m 8,6 C 15,6 C 9,1 km/h (2 Bft) 0,00 %
29.08.2011 18:12 15,6 C 0,0 C 0,0 C 63 % 0 cb 1015,5 hPa 0,0 l/m 9,7 km/h (2 Bft) N 0 0 min 0,000 mm 0 W/m 8,6 C 15,6 C 9,7 km/h (2 Bft) 0,00 %
29.08.2011 18:17 15,8 C 0,0 C 0,0 C 64 % 2 cb 1015,5 hPa 0,0 l/m 9,1 km/h (2 Bft) W-NW 285 0 min 0,000 mm 0 W/m 9,0 C 15,8 C 9,1 km/h (2 Bft) 0,00 %
29.08.2011 18:22 15,8 C 0,0 C 0,0 C 64 % 0 cb 1015,5 hPa 0,0 l/m 8,2 km/h (2 Bft) W 270 0 min 0,000 mm 0 W/m 9,0 C 15,8 C 8,2 km/h (2 Bft) 0,00 %
29.08.2011 18:27 15,7 C 0,0 C 0,0 C 65 % 0 cb 1015,5 hPa 0,0 l/m 8,5 km/h (2 Bft) SW 230 0 min 0,000 mm 0 W/m 9,1 C 15,7 C 8,5 km/h (2 Bft) 0,00 %
29.08.2011 18:32 15,8 C 0,0 C 0,0 C 64 % 1 cb 1015,5 hPa 0,0 l/m 4,5 km/h (1 Bft) W 265 0 min 0,000 mm 0 W/m 9,0 C 15,8 C 4,5 km/h (1 Bft) 0,00 %
29.08.2011 18:37 15,6 C 0,0 C 0,0 C 62 % 1 cb 1015,5 hPa 0,0 l/m 13,9 km/h (3 Bft) SW 215 0 min 0,000 mm 0 W/m 8,3 C 15,6 C 13,9 km/h (3 Bft) 0,00 %
29.08.2011 18:42 15,4 C 0,0 C 0,0 C 63 % 0 cb 1015,5 hPa 0,0 l/m 8,5 km/h (2 Bft) NW 305 0 min 0,000 mm 0 W/m 8,4 C 15,4 C 8,5 km/h (2 Bft) 0,00 %
29.08.2011 18:47 15,3 C 0,0 C 0,0 C 63 % 0 cb 1015,5 hPa 0,0 l/m 6,1 km/h (2 Bft) N 10 0 min 0,000 mm 0 W/m 8,3 C 15,3 C 6,1 km/h (2 Bft) 0,00 %
29.08.2011 18:52 15,2 C 0,0 C 0,0 C 64 % 0 cb 1015,5 hPa 0,0 l/m 4,2 km/h (1 Bft) W 265 0 min 0,000 mm 0 W/m 8,4 C 15,2 C 4,2 km/h (1 Bft) 0,00 %
29.08.2011 18:57 15,4 C 0,0 C 0,0 C 64 % 0 cb 1015,5 hPa 0,0 l/m 4,2 km/h (1 Bft) NW 315 0 min 0,000 mm 0 W/m 8,6 C 15,4 C 4,2 km/h (1 Bft) 0,00 %
29.08.2011 19:02 16,2 C 0,0 C 0,0 C 64 % 6 cb 1015,5 hPa 0,0 l/m 0,0 km/h (0 Bft) SW 220 0 min 0,000 mm 0 W/m 9,4 C 16,2 C 0,0 km/h (0 Bft) 0,00 %
29.08.2011 19:07 16,6 C 0,0 C 0,0 C 62 % 4 cb 1015,5 hPa 0,0 l/m 3,9 km/h (1 Bft) S 190 0 min 0,000 mm 0 W/m 9,3 C 16,6 C 3,9 km/h (1 Bft) 0,00 %
29.08.2011 19:12 16,4 C 0,0 C 0,0 C 61 % 6 cb 1015,5 hPa 0,0 l/m 6,1 km/h (2 Bft) W-SW 250 0 min 0,000 mm 0 W/m 8,9 C 16,4 C 6,1 km/h (2 Bft) 0,00 %
29.08.2011 19:17 15,8 C 0,0 C 0,0 C 61 % 0 cb 1015,5 hPa 0,0 l/m 8,8 km/h (2 Bft) W 270 0 min 0,000 mm 0 W/m 8,3 C 15,8 C 8,8 km/h (2 Bft) 0,00 %
29.08.2011 19:22 15,1 C 0,0 C 0,0 C 63 % 0 cb 1015,5 hPa 0,0 l/m 9,1 km/h (2 Bft) N-NO 20 0 min 0,000 mm 0 W/m 8,1 C 15,1 C 9,1 km/h (2 Bft) 0,00 %
29.08.2011 19:27 14,9 C 0,0 C 0,0 C 64 % 0 cb 1015,5 hPa 0,0 l/m 0,0 km/h (0 Bft) W 265 0 min 0,000 mm 0 W/m 8,2 C 14,9 C 0,0 km/h (0 Bft) 0,00 %
29.08.2011 19:32 14,6 C 0,0 C 0,0 C 65 % 0 cb 1015,5 hPa 0,0 l/m 6,7 km/h (2 Bft) S-SW 205 0 min 0,000 mm 0 W/m 8,1 C 14,6 C 6,7 km/h (2 Bft) 0,00 %
29.08.2011 19:37 14,4 C 0,0 C 0,0 C 65 % 0 cb 1015,5 hPa 0,0 l/m 6,7 km/h (2 Bft) W 270 0 min 0,000 mm 0 W/m 7,9 C 14,4 C 6,7 km/h (2 Bft) 0,00 %
29.08.2011 19:42 14,3 C 0,0 C 0,0 C 65 % 0 cb 1015,5 hPa 0,0 l/m 0,0 km/h (0 Bft) W 280 0 min 0,000 mm 0 W/m 7,8 C 14,3 C 0,0 km/h (0 Bft) 0,00 %
29.08.2011 19:47 14,2 C 0,0 C 0,0 C 66 % 0 cb 1015,5 hPa 0,0 l/m 1,8 km/h (1 Bft) W-NW 290 0 min 0,000 mm 0 W/m 7,9 C 14,2 C 1,8 km/h (1 Bft) 0,00 %
29.08.2011 19:52 14,0 C 0,0 C 0,0 C 67 % 0 cb 1015,5 hPa 0,0 l/m 3,0 km/h (1 Bft) W-SW 245 0 min 0,000 mm 0 W/m 8,0 C 14,0 C 3,0 km/h (1 Bft) 0,00 %
29.08.2011 19:57 13,9 C 0,0 C 0,0 C 67 % 0 cb 1015,5 hPa 0,0 l/m 1,2 km/h (1 Bft) W 270 0 min 0,000 mm 0 W/m 7,9 C 13,9 C 1,2 km/h (1 Bft) 0,00 %
29.08.2011 20:02 13,7 C 0,0 C 0,0 C 69 % 0 cb 1015,5 hPa 0,0 l/m 0,0 km/h (0 Bft) NW 325 0 min 0,000 mm 0 W/m 8,1 C 13,7 C 0,0 km/h (0 Bft) 0,00 %
29.08.2011 20:07 13,4 C 0,0 C 0,0 C 70 % 0 cb 1015,5 hPa 0,0 l/m 0,0 km/h (0 Bft) W-SW 240 0 min 0,000 mm 0 W/m 8,0 C 13,4 C 0,0 km/h (0 Bft) 0,00 %
29.08.2011 20:12 13,2 C 0,0 C 0,0 C 71 % 0 cb 1015,5 hPa 0,0 l/m 0,0 km/h (0 Bft) W 280 0 min 0,000 mm 0 W/m 8,1 C 13,2 C 0,0 km/h (0 Bft) 0,00 %
29.08.2011 20:17 13,2 C 0,0 C 0,0 C 71 % 0 cb 1015,5 hPa 0,0 l/m 0,0 km/h (0 Bft) W-NW 285 0 min 0,000 mm 0 W/m 8,1 C 13,2 C 0,0 km/h (0 Bft) 0,00 %
29.08.2011 20:22 12,9 C 0,0 C 0,0 C 72 % 0 cb 1015,5 hPa 0,0 l/m 0,0 km/h (0 Bft) SW 235 0 min 0,000 mm 0 W/m 8,0 C 12,9 C 0,0 km/h (0 Bft) 0,00 %
29.08.2011 20:27 12,8 C 0,0 C 0,0 C 72 % 0 cb 1015,5 hPa 0,0 l/m 0,0 km/h (0 Bft) W-SW 255 0 min 0,000 mm 0 W/m 7,9 C 12,8 C 0,0 km/h (0 Bft) 0,00 %
29.08.2011 20:32 12,8 C 0,0 C 0,0 C 72 % 0 cb 1015,5 hPa 0,0 l/m 0,0 km/h (0 Bft) W 265 0 min 0,000 mm 0 W/m 7,9 C 12,8 C 0,0 km/h (0 Bft) 0,00 %
29.08.2011 20:37 12,7 C 0,0 C 0,0 C 73 % 0 cb 1015,5 hPa 0,0 l/m 0,0 km/h (0 Bft) SW 230 0 min 0,000 mm 0 W/m 8,0 C 12,7 C 0,0 km/h (0 Bft) 0,00 %
29.08.2011 20:42 12,5 C 0,0 C 0,0 C 73 % 0 cb 1015,5 hPa 0,0 l/m 0,0 km/h (0 Bft) W 270 0 min 0,000 mm 0 W/m 7,8 C 12,5 C 0,0 km/h (0 Bft) 0,00 %
29.08.2011 20:47 12,4 C 0,0 C 0,0 C 74 % 0 cb 1015,5 hPa 0,0 l/m 0,0 km/h (0 Bft) W-NW 300 0 min 0,000 mm 0 W/m 7,9 C 12,4 C 0,0 km/h (0 Bft) 0,00 %
29.08.2011 20:52 12,5 C 0,0 C 0,0 C 73 % 0 cb 1015,5 hPa 0,0 l/m 0,0 km/h (0 Bft) SW 235 0 min 0,000 mm 0 W/m 7,8 C 12,5 C 0,0 km/h (0 Bft) 0,00 %
29.08.2011 20:57 12,5 C 0,0 C 0,0 C 73 % 0 cb 1015,5 hPa 0,0 l/m 0,0 km/h (0 Bft) N 5 0 min 0,000 mm 0 W/m 7,8 C 12,5 C 0,0 km/h (0 Bft) 0,00 %
29.08.2011 21:02 12,6 C 0,0 C 0,0 C 73 % 0 cb 1015,5 hPa 0,0 l/m 3,6 km/h (1 Bft) NW 310 0 min 0,000 mm 0 W/m 7,9 C 12,6 C 3,6 km/h (1 Bft) 0,00 %
29.08.2011 21:07 12,6 C 0,0 C 0,0 C 73 % 0 cb 1015,5 hPa 0,0 l/m 1,8 km/h (1 Bft) N-NW 335 0 min 0,000 mm 0 W/m 7,9 C 12,6 C 1,8 km/h (1 Bft) 0,00 %
29.08.2011 21:12 12,5 C 0,0 C 0,0 C 73 % 0 cb 1015,5 hPa 0,0 l/m 0,0 km/h (0 Bft) W 270 0 min 0,000 mm 0 W/m 7,8 C 12,5 C 0,0 km/h (0 Bft) 0,00 %
29.08.2011 21:17 12,2 C 0,0 C 0,0 C 74 % 0 cb 1015,5 hPa 0,0 l/m 0,0 km/h (0 Bft) W 270 0 min 0,000 mm 0 W/m 7,7 C 12,2 C 0,0 km/h (0 Bft) 0,00 %
29.08.2011 21:22 12,1 C 0,0 C 0,0 C 75 % 0 cb 1016,5 hPa 0,0 l/m 0,0 km/h (0 Bft) W-SW 240 0 min 0,000 mm 0 W/m 7,8 C 12,1 C 0,0 km/h (0 Bft) 0,00 %
29.08.2011 21:27 11,8 C 0,0 C 0,0 C 76 % 0 cb 1016,5 hPa 0,0 l/m 0,0 km/h (0 Bft) W-NW 295 0 min 0,000 mm 0 W/m 7,7 C 11,8 C 0,0 km/h (0 Bft) 0,00 %
29.08.2011 21:32 11,6 C 0,0 C 0,0 C 77 % 0 cb 1016,5 hPa 0,0 l/m 0,0 km/h (0 Bft) W-SW 240 0 min 0,000 mm 0 W/m 7,7 C 11,6 C 0,0 km/h (0 Bft) 0,00 %
29.08.2011 21:37 11,3 C 0,0 C 0,0 C 77 % 0 cb 1016,5 hPa 0,0 l/m 0,0 km/h (0 Bft) NW 325 0 min 0,000 mm 0 W/m 7,4 C 11,3 C 0,0 km/h (0 Bft) 0,00 %
29.08.2011 21:42 11,1 C 0,0 C 0,0 C 78 % 0 cb 1016,5 hPa 0,0 l/m 0,0 km/h (0 Bft) NW 320 0 min 0,000 mm 0 W/m 7,4 C 11,1 C 0,0 km/h (0 Bft) 0,00 %
29.08.2011 21:47 11,0 C 0,0 C 0,0 C 79 % 0 cb 1016,5 hPa 0,0 l/m 0,0 km/h (0 Bft) N-NW 330 0 min 0,000 mm 0 W/m 7,5 C 11,0 C 0,0 km/h (0 Bft) 0,00 %
29.08.2011 21:52 10,8 C 0,0 C 0,0 C 79 % 0 cb 1016,5 hPa 0,0 l/m 0,0 km/h (0 Bft) W-NW 300 0 min 0,000 mm 0 W/m 7,3 C 10,8 C 0,0 km/h (0 Bft) 0,00 %
29.08.2011 21:57 10,6 C 0,0 C 0,0 C 80 % 0 cb 1016,5 hPa 0,0 l/m 0,0 km/h (0 Bft) SW 220 0 min 0,000 mm 0 W/m 7,3 C 10,6 C 0,0 km/h (0 Bft) 0,00 %
29.08.2011 22:02 10,6 C 0,0 C 0,0 C 80 % 0 cb 1016,5 hPa 0,0 l/m 0,0 km/h (0 Bft) NW 315 0 min 0,000 mm 0 W/m 7,3 C 10,6 C 0,0 km/h (0 Bft) 0,00 %
29.08.2011 22:07 10,5 C 0,0 C 0,0 C 80 % 0 cb 1016,5 hPa 0,0 l/m 0,0 km/h (0 Bft) O-SO 120 0 min 0,000 mm 0 W/m 7,2 C 10,5 C 0,0 km/h (0 Bft) 0,00 %
29.08.2011 22:12 10,4 C 0,0 C 0,0 C 80 % 0 cb 1016,5 hPa 0,0 l/m 0,0 km/h (0 Bft) NO 50 0 min 0,000 mm 0 W/m 7,1 C 10,4 C 0,0 km/h (0 Bft) 0,00 %
29.08.2011 22:17 10,4 C 0,0 C 0,0 C 81 % 0 cb 1016,5 hPa 0,0 l/m 0,0 km/h (0 Bft) NO 40 0 min 0,000 mm 0 W/m 7,3 C 10,4 C 0,0 km/h (0 Bft) 0,00 %
29.08.2011 22:22 10,4 C 0,0 C 0,0 C 81 % 0 cb 1016,5 hPa 0,0 l/m 0,0 km/h (0 Bft) SO 135 0 min 0,000 mm 0 W/m 7,3 C 10,4 C 0,0 km/h (0 Bft) 0,00 %
29.08.2011 22:27 10,6 C 0,0 C 0,0 C 81 % 0 cb 1016,5 hPa 0,0 l/m 0,0 km/h (0 Bft) O 80 0 min 0,000 mm 0 W/m 7,5 C 10,6 C 0,0 km/h (0 Bft) 0,00 %
29.08.2011 22:32 10,7 C 0,0 C 0,0 C 81 % 0 cb 1016,5 hPa 0,0 l/m 0,0 km/h (0 Bft) O-SO 120 0 min 0,000 mm 0 W/m 7,6 C 10,7 C 0,0 km/h (0 Bft) 0,00 %
29.08.2011 22:37 10,7 C 0,0 C 0,0 C 81 % 0 cb 1016,5 hPa 0,0 l/m 0,0 km/h (0 Bft) NO 45 0 min 0,000 mm 0 W/m 7,6 C 10,7 C 0,0 km/h (0 Bft) 0,00 %
29.08.2011 22:42 10,8 C 0,0 C 0,0 C 81 % 0 cb 1016,5 hPa 0,0 l/m 0,0 km/h (0 Bft) O-NO 60 0 min 0,000 mm 0 W/m 7,7 C 10,8 C 0,0 km/h (0 Bft) 0,00 %
29.08.2011 22:47 10,8 C 0,0 C 0,0 C 81 % 0 cb 1016,5 hPa 0,0 l/m 0,0 km/h (0 Bft) O-NO 75 0 min 0,000 mm 0 W/m 7,7 C 10,8 C 0,0 km/h (0 Bft) 0,00 %
29.08.2011 22:52 10,8 C 0,0 C 0,0 C 81 % 0 cb 1016,5 hPa 0,0 l/m 0,0 km/h (0 Bft) O-NO 75 0 min 0,000 mm 0 W/m 7,7 C 10,8 C 0,0 km/h (0 Bft) 0,00 %
29.08.2011 22:57 10,8 C 0,0 C 0,0 C 81 % 0 cb 1016,5 hPa 0,0 l/m 0,0 km/h (0 Bft) O-NO 75 0 min 0,000 mm 0 W/m 7,7 C 10,8 C 0,0 km/h (0 Bft) 0,00 %
29.08.2011 23:02 10,8 C 0,0 C 0,0 C 82 % 0 cb 1016,5 hPa 0,0 l/m 0,0 km/h (0 Bft) N-NO 25 0 min 0,000 mm 0 W/m 7,9 C 10,8 C 0,0 km/h (0 Bft) 0,00 %
29.08.2011 23:07 10,7 C 0,0 C 0,0 C 82 % 0 cb 1016,5 hPa 0,0 l/m 0,0 km/h (0 Bft) O 95 0 min 0,000 mm 0 W/m 7,8 C 10,7 C 0,0 km/h (0 Bft) 0,00 %
29.08.2011 23:12 10,5 C 0,0 C 0,0 C 82 % 0 cb 1016,5 hPa 0,0 l/m 0,0 km/h (0 Bft) W-SW 240 0 min 0,000 mm 0 W/m 7,6 C 10,5 C 0,0 km/h (0 Bft) 0,00 %
29.08.2011 23:17 10,3 C 0,0 C 0,0 C 82 % 0 cb 1016,5 hPa 0,0 l/m 0,0 km/h (0 Bft) W-NW 300 0 min 0,000 mm 0 W/m 7,4 C 10,3 C 0,0 km/h (0 Bft) 0,00 %
29.08.2011 23:22 10,0 C 0,0 C 0,0 C 83 % 0 cb 1016,5 hPa 0,0 l/m 0,0 km/h (0 Bft) N 0 0 min 0,000 mm 0 W/m 7,2 C 10,0 C 0,0 km/h (0 Bft) 0,00 %
29.08.2011 23:27 9,8 C 0,0 C 0,0 C 84 % 0 cb 1016,5 hPa 0,0 l/m 0,0 km/h (0 Bft) O-NO 60 0 min 0,000 mm 0 W/m 7,2 C 9,8 C 0,0 km/h (0 Bft) 0,00 %
29.08.2011 23:32 9,8 C 0,0 C 0,0 C 84 % 0 cb 1016,5 hPa 0,0 l/m 0,0 km/h (0 Bft) O-NO 60 0 min 0,000 mm 0 W/m 7,2 C 9,8 C 0,0 km/h (0 Bft) 0,00 %
29.08.2011 23:37 9,7 C 0,0 C 0,0 C 84 % 0 cb 1016,5 hPa 0,0 l/m 0,0 km/h (0 Bft) O-NO 70 0 min 0,000 mm 0 W/m 7,1 C 9,7 C 0,0 km/h (0 Bft) 0,00 %
29.08.2011 23:42 9,6 C 0,0 C 0,0 C 84 % 0 cb 1016,5 hPa 0,0 l/m 0,0 km/h (0 Bft) O-NO 60 0 min 0,000 mm 0 W/m 7,0 C 9,6 C 0,0 km/h (0 Bft) 0,00 %
29.08.2011 23:47 9,3 C 0,0 C 0,0 C 84 % 0 cb 1016,5 hPa 0,0 l/m 0,0 km/h (0 Bft) W-NW 295 0 min 0,000 mm 0 W/m 6,7 C 9,3 C 0,0 km/h (0 Bft) 0,00 %
29.08.2011 23:52 9,2 C 0,0 C 0,0 C 84 % 0 cb 1016,5 hPa 0,0 l/m 0,0 km/h (0 Bft) NW 315 0 min 0,000 mm 0 W/m 6,6 C 9,2 C 0,0 km/h (0 Bft) 0,00 %
29.08.2011 23:57 9,1 C 0,0 C 0,0 C 85 % 0 cb 1016,5 hPa 0,0 l/m 0,0 km/h (0 Bft) N-NO 25 0 min 0,000 mm 0 W/m 6,7 C 9,1 C 0,0 km/h (0 Bft) 0,00 %
_ Min-Zeit 06:42 00:02 00:02 13:17 00:02 03:51 - 00:02 - - - - - 06:42 06:42 00:02 00:02
Minimum _ 6,6 C 0,0 C 0,0 C 59 % 0 cb 1015,5 hPa - 0,0 km/h (0 Bft) - - - - - 4,9 C 6,6 C 0,0 km/h (0 Bft) 0,00 %
_ Max-Zeit 13:07 00:02 00:02 05:21 10:02 00:02 00:02 12:07 - - 00:02 00:02 00:02 09:52 13:07 12:07 00:02
Maximum _ 17,6 C 0,0 C 0,0 C 89 % 8 cb 1017,5 hPa 0,0 l/m 21,8 km/h
W-SW (4 Bft)
- - 0 min 0,000 mm 0 W/m 10,0 C 17,6 C 21,8 km/h
W-SW (4 Bft)
0,00 %
Durchschnitt _ 12,0 C 0,0 C 0,0 C 76 % 1 cb 1015,9 hPa #0,0 l/m 4,5 km/h (1 Bft) W - #0 min. #0,000 mm 0 W/m 7,7 C 12,0 C 4,5 km/h (1 Bft) 0,00 %
Wetterstation Gdesweiler